TimeMST,TemperatureF,Dew PointF,Humidity,Sea Level PressureIn,VisibilityMPH,Wind Direction,Wind SpeedMPH,Gust SpeedMPH,PrecipitationIn,Events,Conditions,WindDirDegrees,DateUTC
12:53 AM,21.9,17.1,82,30.38,10.0,SW,8.1,-,N/A,,Clear,230,2013-01-04 07:53:00
1:53 AM,21.0,16.0,81,30.37,10.0,West,3.5,-,N/A,,Clear,270,2013-01-04 08:53:00
2:53 AM,19.0,15.1,85,30.37,10.0,Calm,Calm,-,N/A,,Clear,0,2013-01-04 09:53:00
3:53 AM,19.9,16.0,85,30.36,10.0,West,4.6,-,N/A,,Clear,280,2013-01-04 10:53:00
4:53 AM,19.9,16.0,85,30.38,10.0,SSW,5.8,-,N/A,,Clear,210,2013-01-04 11:53:00
6:53 AM,21.0,16.0,81,30.39,10.0,Calm,Calm,-,N/A,,Clear,0,2013-01-04 13:53:00
7:53 AM,23.0,18.0,81,30.38,10.0,WSW,4.6,-,N/A,,Mostly Cloudy,240,2013-01-04 14:53:00
8:53 AM,27.0,21.9,81,30.38,10.0,South,6.9,-,N/A,,Clear,180,2013-01-04 15:53:00
9:53 AM,32.0,24.1,73,30.35,10.0,SSW,10.4,-,N/A,,Partly Cloudy,210,2013-01-04 16:53:00
10:07 AM,32.0,24.8,75,30.29,10.0,SSW,8.1,-,N/A,,Mostly Cloudy,200,2013-01-04 17:07:00
10:26 AM,30.2,23.0,75,30.28,10.0,SW,10.4,-,N/A,,Partly Cloudy,220,2013-01-04 17:26:00
10:53 AM,32.0,24.1,73,30.33,10.0,SSW,13.8,-,N/A,,Scattered Clouds,210,2013-01-04 17:53:00
11:53 AM,33.1,24.1,70,30.30,10.0,SW,16.1,-,N/A,,Mostly Cloudy,220,2013-01-04 18:53:00
12:53 PM,34.0,24.1,67,30.25,10.0,SW,18.4,-,N/A,,Scattered Clouds,220,2013-01-04 19:53:00
1:53 PM,34.0,24.1,67,30.22,10.0,SSW,17.3,-,N/A,,Scattered Clouds,210,2013-01-04 20:53:00
2:53 PM,36.0,24.1,62,30.20,10.0,SW,17.3,24.2,N/A,,Partly Cloudy,220,2013-01-04 21:53:00
3:19 PM,35.6,24.8,65,30.15,10.0,SW,19.6,-,N/A,,Mostly Cloudy,220,2013-01-04 22:19:00
3:26 PM,33.8,23.0,65,30.15,10.0,SSW,16.1,-,N/A,,Scattered Clouds,210,2013-01-04 22:26:00
3:36 PM,33.8,23.0,65,30.14,10.0,SW,17.3,-,N/A,,Mostly Cloudy,220,2013-01-04 22:36:00
3:53 PM,33.1,23.0,66,30.21,10.0,SW,15.0,-,N/A,,Overcast,220,2013-01-04 22:53:00
4:44 PM,30.2,21.2,69,30.13,10.0,SSW,11.5,-,N/A,,Partly Cloudy,210,2013-01-04 23:44:00
4:53 PM,30.0,21.9,72,30.21,10.0,SW,11.5,-,N/A,,Partly Cloudy,220,2013-01-04 23:53:00
5:53 PM,30.0,21.9,72,30.19,10.0,SSW,10.4,-,N/A,,Clear,200,2013-01-05 00:53:00
6:53 PM,28.0,21.9,78,30.19,10.0,South,10.4,-,N/A,,Clear,190,2013-01-05 01:53:00
7:53 PM,28.9,23.0,78,30.18,10.0,SW,13.8,23.0,N/A,,Partly Cloudy,220,2013-01-05 02:53:00
8:53 PM,28.0,21.9,78,30.14,10.0,SSW,13.8,-,N/A,,Clear,210,2013-01-05 03:53:00
9:53 PM,27.0,21.0,78,30.12,10.0,SSW,17.3,-,N/A,,Clear,210,2013-01-05 04:53:00
10:53 PM,25.0,19.9,81,30.11,10.0,SW,12.7,-,N/A,,Clear,230,2013-01-05 05:53:00
11:53 PM,24.1,19.0,81,30.10,10.0,SW,11.5,-,N/A,,Clear,220,2013-01-05 06:53:00